Time,TemperatureF,DewpointF,PressureIn,WindDirection,WindDirectionDegrees,WindSpeedMPH,WindSpeedGustMPH,Humidity,HourlyPrecipIn,Conditions,Clouds,dailyrainin,SoftwareType,DateUTC
2013-08-25 00:09:00,61.9,54.0,30.29,SW,228,0.0,1.0,75,0.00,,,0.00,weatherlink.com 1.10,2013-08-25 04:09:00,
2013-08-25 00:24:00,62.0,54.0,30.30,SW,228,0.0,1.0,74,0.00,,,0.00,weatherlink.com 1.10,2013-08-25 04:24:00,
2013-08-25 00:39:00,62.2,54.0,30.29,SW,228,0.0,1.0,74,0.00,,,0.00,weatherlink.com 1.10,2013-08-25 04:39:00,
2013-08-25 00:54:00,62.2,54.0,30.29,SW,228,0.0,1.0,74,0.00,,,0.00,weatherlink.com 1.10,2013-08-25 04:54:00,
2013-08-25 01:09:00,61.8,53.0,30.29,SW,228,0.0,0.0,74,0.00,,,0.00,weatherlink.com 1.10,2013-08-25 05:09:00,
2013-08-25 01:24:00,62.0,54.0,30.28,SW,225,1.0,2.0,74,0.00,,,0.00,weatherlink.com 1.10,2013-08-25 05:24:00,
2013-08-25 01:39:00,62.3,54.0,30.28,South,173,0.0,4.0,73,0.00,,,0.00,weatherlink.com 1.10,2013-08-25 05:39:00,
2013-08-25 01:54:00,61.2,54.0,30.29,South,173,0.0,3.0,77,0.00,,,0.00,weatherlink.com 1.10,2013-08-25 05:54:00,
2013-08-25 02:09:00,60.1,54.0,30.29,South,173,0.0,2.0,79,0.00,,,0.00,weatherlink.com 1.10,2013-08-25 06:09:00,
2013-08-25 02:24:00,60.8,54.0,30.28,South,173,0.0,2.0,78,0.00,,,0.00,weatherlink.com 1.10,2013-08-25 06:24:00,
2013-08-25 02:39:00,60.6,54.0,30.28,South,173,0.0,1.0,80,0.00,,,0.00,weatherlink.com 1.10,2013-08-25 06:39:00,
2013-08-25 02:54:00,60.3,54.0,30.28,South,173,0.0,2.0,81,0.00,,,0.00,weatherlink.com 1.10,2013-08-25 06:54:00,
2013-08-25 03:09:00,59.9,54.0,30.28,South,173,0.0,1.0,82,0.00,,,0.00,weatherlink.com 1.10,2013-08-25 07:09:00,
2013-08-25 03:24:00,59.7,55.0,30.29,South,173,0.0,1.0,84,0.00,,,0.00,weatherlink.com 1.10,2013-08-25 07:24:00,
2013-08-25 03:40:00,59.3,55.0,30.29,South,173,0.0,1.0,86,0.00,,,0.00,weatherlink.com 1.10,2013-08-25 07:40:00,
2013-08-25 03:55:00,59.5,56.0,30.29,South,173,0.0,2.0,87,0.00,,,0.00,weatherlink.com 1.10,2013-08-25 07:55:00,
2013-08-25 04:10:00,59.5,56.0,30.30,South,173,0.0,0.0,87,0.00,,,0.00,weatherlink.com 1.10,2013-08-25 08:10:00,
2013-08-25 04:25:00,59.3,56.0,30.29,South,173,0.0,0.0,88,0.00,,,0.00,weatherlink.com 1.10,2013-08-25 08:25:00,
2013-08-25 04:40:00,59.2,56.0,30.29,South,173,0.0,2.0,89,0.00,,,0.00,weatherlink.com 1.10,2013-08-25 08:40:00,
2013-08-25 04:55:00,59.4,56.0,30.30,South,173,0.0,2.0,89,0.00,,,0.00,weatherlink.com 1.10,2013-08-25 08:55:00,
2013-08-25 05:10:00,59.5,56.0,30.30,South,173,0.0,2.0,89,0.00,,,0.00,weatherlink.com 1.10,2013-08-25 09:10:00,
2013-08-25 05:25:00,59.6,56.0,30.30,South,173,0.0,2.0,89,0.00,,,0.00,weatherlink.com 1.10,2013-08-25 09:25:00,
2013-08-25 05:40:00,59.2,56.0,30.31,South,173,0.0,1.0,89,0.00,,,0.00,weatherlink.com 1.10,2013-08-25 09:40:00,
2013-08-25 05:55:00,58.7,56.0,30.32,South,173,0.0,1.0,90,0.00,,,0.00,weatherlink.com 1.10,2013-08-25 09:55:00,
2013-08-25 06:10:00,58.7,56.0,30.33,South,173,0.0,0.0,91,0.00,,,0.00,weatherlink.com 1.10,2013-08-25 10:10:00,
2013-08-25 06:25:00,58.8,56.0,30.33,South,173,1.0,2.0,90,0.00,,,0.00,weatherlink.com 1.10,2013-08-25 10:25:00,
2013-08-25 06:40:00,59.3,56.0,30.34,South,173,0.0,2.0,89,0.00,,,0.00,weatherlink.com 1.10,2013-08-25 10:40:00,
2013-08-25 06:55:00,60.4,57.0,30.34,SSW,201,1.0,3.0,87,0.00,,,0.00,weatherlink.com 1.10,2013-08-25 10:55:00,
2013-08-25 07:10:00,60.5,57.0,30.34,SSW,200,0.0,2.0,87,0.00,,,0.00,weatherlink.com 1.10,2013-08-25 11:10:00,
2013-08-25 07:25:00,59.4,56.0,30.34,SSW,200,0.0,0.0,89,0.00,,,0.00,weatherlink.com 1.10,2013-08-25 11:25:00,
2013-08-25 07:40:00,60.1,57.0,30.34,SSW,198,0.0,1.0,89,0.00,,,0.00,weatherlink.com 1.10,2013-08-25 11:40:00,
2013-08-25 07:55:00,61.2,58.0,30.35,SSW,202,0.0,2.0,88,0.00,,,0.00,weatherlink.com 1.10,2013-08-25 11:55:00,
2013-08-25 08:10:00,62.4,58.0,30.35,SSW,201,0.0,1.0,84,0.00,,,0.00,weatherlink.com 1.10,2013-08-25 12:10:00,
2013-08-25 08:25:00,62.6,58.0,30.34,East,94,0.0,2.0,85,0.00,,,0.00,weatherlink.com 1.10,2013-08-25 12:25:00,
2013-08-25 08:40:00,64.8,59.0,30.35,East,94,0.0,1.0,81,0.00,,,0.00,weatherlink.com 1.10,2013-08-25 12:40:00,
2013-08-25 08:55:00,64.5,59.0,30.35,ENE,68,1.0,2.0,82,0.00,,,0.00,weatherlink.com 1.10,2013-08-25 12:55:00,
2013-08-25 09:10:00,64.1,60.0,30.35,NE,42,2.0,3.0,85,0.00,,,0.00,weatherlink.com 1.10,2013-08-25 13:10:00,
2013-08-25 09:25:00,63.9,60.0,30.35,NNE,33,1.0,4.0,86,0.00,,,0.00,weatherlink.com 1.10,2013-08-25 13:25:00,
2013-08-25 09:40:00,64.3,60.0,30.35,NE,41,0.0,3.0,85,0.00,,,0.00,weatherlink.com 1.10,2013-08-25 13:40:00,
2013-08-25 09:55:00,65.0,60.0,30.35,NE,34,3.0,6.0,84,0.00,,,0.00,weatherlink.com 1.10,2013-08-25 13:55:00,
2013-08-25 10:10:00,65.2,60.0,30.35,NE,40,2.0,4.0,84,0.00,,,0.00,weatherlink.com 1.10,2013-08-25 14:10:00,
2013-08-25 10:25:00,65.4,59.0,30.35,SW,232,0.0,4.0,81,0.00,,,0.00,weatherlink.com 1.10,2013-08-25 14:25:00,
2013-08-25 10:40:00,67.3,59.0,30.35,SE,133,0.0,5.0,74,0.00,,,0.00,weatherlink.com 1.10,2013-08-25 14:40:00,
2013-08-25 10:55:00,67.8,59.0,30.34,WSW,240,0.0,5.0,74,0.00,,,0.00,weatherlink.com 1.10,2013-08-25 14:55:00,
2013-08-25 11:10:00,68.4,58.0,30.34,West,269,2.0,3.0,70,0.00,,,0.00,weatherlink.com 1.10,2013-08-25 15:10:00,
2013-08-25 11:25:00,68.3,56.0,30.34,WSW,251,1.0,6.0,66,0.00,,,0.00,weatherlink.com 1.10,2013-08-25 15:25:00,
2013-08-25 11:40:00,68.2,57.0,30.34,SSW,213,2.0,8.0,68,0.00,,,0.00,weatherlink.com 1.10,2013-08-25 15:40:00,
2013-08-25 11:55:00,69.2,55.0,30.34,NNW,329,0.0,3.0,62,0.00,,,0.00,weatherlink.com 1.10,2013-08-25 15:55:00,
2013-08-25 12:11:00,70.3,59.0,30.34,WNW,288,0.0,5.0,67,0.00,,,0.00,weatherlink.com 1.10,2013-08-25 16:11:00,
2013-08-25 12:26:00,70.7,58.0,30.34,WNW,290,0.0,4.0,64,0.00,,,0.00,weatherlink.com 1.10,2013-08-25 16:26:00,
2013-08-25 12:41:00,70.3,56.0,30.33,WSW,244,6.0,6.0,61,0.00,,,0.00,weatherlink.com 1.10,2013-08-25 16:41:00,
2013-08-25 12:56:00,70.7,57.0,30.33,NNE,31,0.0,5.0,63,0.00,,,0.00,weatherlink.com 1.10,2013-08-25 16:56:00,
2013-08-25 13:11:00,71.0,55.0,30.32,SSW,192,4.0,6.0,58,0.00,,,0.00,weatherlink.com 1.10,2013-08-25 17:11:00,
2013-08-25 13:26:00,71.6,51.0,30.32,ESE,103,2.0,5.0,49,0.00,,,0.00,weatherlink.com 1.10,2013-08-25 17:26:00,
2013-08-25 13:41:00,72.1,52.0,30.32,North,360,3.0,4.0,50,0.00,,,0.00,weatherlink.com 1.10,2013-08-25 17:41:00,
2013-08-25 13:56:00,73.5,55.0,30.31,WSW,240,2.0,3.0,52,0.00,,,0.00,weatherlink.com 1.10,2013-08-25 17:56:00,
2013-08-25 14:11:00,73.0,55.0,30.31,SW,217,0.0,5.0,54,0.00,,,0.00,weatherlink.com 1.10,2013-08-25 18:11:00,
2013-08-25 14:26:00,73.0,56.0,30.30,NE,49,2.0,5.0,55,0.00,,,0.00,weatherlink.com 1.10,2013-08-25 18:26:00,
2013-08-25 14:41:00,72.2,55.0,30.30,NE,35,2.0,9.0,56,0.00,,,0.00,weatherlink.com 1.10,2013-08-25 18:41:00,
2013-08-25 14:56:00,73.2,56.0,30.30,ENE,58,3.0,7.0,56,0.00,,,0.00,weatherlink.com 1.10,2013-08-25 18:56:00,
2013-08-25 15:11:00,73.0,57.0,30.29,SSE,158,0.0,6.0,57,0.00,,,0.00,weatherlink.com 1.10,2013-08-25 19:11:00,
2013-08-25 15:26:00,74.1,58.0,30.28,SE,134,2.0,4.0,58,0.00,,,0.00,weatherlink.com 1.10,2013-08-25 19:26:00,
2013-08-25 15:41:00,73.2,57.0,30.28,North,11,1.0,5.0,57,0.00,,,0.00,weatherlink.com 1.10,2013-08-25 19:41:00,
2013-08-25 15:56:00,73.5,59.0,30.28,NNE,28,3.0,5.0,60,0.00,,,0.00,weatherlink.com 1.10,2013-08-25 19:56:00,
2013-08-25 16:11:00,72.5,60.0,30.28,North,5,0.0,5.0,65,0.00,,,0.00,weatherlink.com 1.10,2013-08-25 20:11:00,
2013-08-25 16:26:00,72.8,58.0,30.28,NNE,14,2.0,6.0,60,0.00,,,0.00,weatherlink.com 1.10,2013-08-25 20:26:00,
2013-08-25 16:41:00,73.5,59.0,30.27,North,349,1.0,5.0,60,0.00,,,0.00,weatherlink.com 1.10,2013-08-25 20:41:00,
2013-08-25 16:56:00,74.4,59.0,30.27,NNW,341,5.0,6.0,60,0.00,,,0.00,weatherlink.com 1.10,2013-08-25 20:56:00,
2013-08-25 17:11:00,73.5,61.0,30.26,North,360,0.0,6.0,64,0.00,,,0.00,weatherlink.com 1.10,2013-08-25 21:11:00,
2013-08-25 17:26:00,72.4,59.0,30.26,NNE,26,0.0,5.0,63,0.00,,,0.00,weatherlink.com 1.10,2013-08-25 21:26:00,
2013-08-25 17:41:00,72.1,59.0,30.25,NNE,27,0.0,4.0,64,0.00,,,0.00,weatherlink.com 1.10,2013-08-25 21:41:00,
2013-08-25 17:56:00,72.0,60.0,30.26,NNW,347,1.0,3.0,67,0.00,,,0.00,weatherlink.com 1.10,2013-08-25 21:56:00,
2013-08-25 18:11:00,71.7,61.0,30.25,NNW,347,0.0,1.0,68,0.00,,,0.00,weatherlink.com 1.10,2013-08-25 22:11:00,
2013-08-25 18:26:00,70.7,60.0,30.24,SW,226,0.0,2.0,70,0.00,,,0.00,weatherlink.com 1.10,2013-08-25 22:26:00,
2013-08-25 18:41:00,70.0,61.0,30.24,SW,226,1.0,1.0,72,0.00,,,0.00,weatherlink.com 1.10,2013-08-25 22:41:00,
2013-08-25 18:56:00,68.8,60.0,30.24,SW,226,1.0,3.0,73,0.00,,,0.00,weatherlink.com 1.10,2013-08-25 22:56:00,
2013-08-25 19:11:00,67.7,60.0,30.24,SW,226,1.0,1.0,75,0.00,,,0.00,weatherlink.com 1.10,2013-08-25 23:11:00,
2013-08-25 19:26:00,66.8,59.0,30.24,SW,226,0.0,1.0,76,0.00,,,0.00,weatherlink.com 1.10,2013-08-25 23:26:00,
2013-08-25 19:41:00,65.7,58.0,30.23,South,186,0.0,3.0,77,0.00,,,0.00,weatherlink.com 1.10,2013-08-25 23:41:00,
2013-08-25 19:56:00,64.9,58.0,30.24,SSW,212,0.0,1.0,78,0.00,,,0.00,weatherlink.com 1.10,2013-08-25 23:56:00,
2013-08-25 20:11:00,64.9,58.0,30.24,SSW,213,0.0,3.0,78,0.00,,,0.00,weatherlink.com 1.10,2013-08-26 00:11:00,
2013-08-25 20:26:00,64.9,58.0,30.23,SW,228,2.0,3.0,77,0.00,,,0.00,weatherlink.com 1.10,2013-08-26 00:26:00,
2013-08-25 20:41:00,64.7,57.0,30.23,SSW,209,0.0,2.0,77,0.00,,,0.00,weatherlink.com 1.10,2013-08-26 00:41:00,
2013-08-25 20:56:00,64.2,57.0,30.24,SSW,207,0.0,2.0,78,0.00,,,0.00,weatherlink.com 1.10,2013-08-26 00:56:00,
2013-08-25 21:11:00,63.7,57.0,30.25,South,182,0.0,2.0,79,0.00,,,0.00,weatherlink.com 1.10,2013-08-26 01:11:00,
2013-08-25 21:26:00,64.0,57.0,30.25,West,281,0.0,4.0,78,0.00,,,0.00,weatherlink.com 1.10,2013-08-26 01:26:00,
2013-08-25 21:41:00,63.6,57.0,30.25,SSE,163,1.0,2.0,79,0.00,,,0.00,weatherlink.com 1.10,2013-08-26 01:41:00,
2013-08-25 21:56:00,63.4,57.0,30.25,South,174,0.0,2.0,79,0.00,,,0.00,weatherlink.com 1.10,2013-08-26 01:56:00,
2013-08-25 22:11:00,62.9,57.0,30.25,South,188,1.0,2.0,81,0.00,,,0.00,weatherlink.com 1.10,2013-08-26 02:11:00,
2013-08-25 22:26:00,62.5,57.0,30.25,South,173,0.0,3.0,82,0.00,,,0.00,weatherlink.com 1.10,2013-08-26 02:26:00,
2013-08-25 22:41:00,62.5,57.0,30.26,South,182,0.0,3.0,81,0.00,,,0.00,weatherlink.com 1.10,2013-08-26 02:41:00,
2013-08-25 22:56:00,62.6,57.0,30.26,SSE,167,0.0,0.0,81,0.00,,,0.00,weatherlink.com 1.10,2013-08-26 02:56:00,
2013-08-25 23:11:00,62.8,57.0,30.26,SSE,167,0.0,2.0,80,0.00,,,0.00,weatherlink.com 1.10,2013-08-26 03:11:00,
2013-08-25 23:26:00,63.6,57.0,30.26,SW,217,0.0,5.0,79,0.00,,,0.00,weatherlink.com 1.10,2013-08-26 03:26:00,
2013-08-25 23:41:00,64.7,57.0,30.26,SW,234,0.0,8.0,76,0.00,,,0.00,weatherlink.com 1.10,2013-08-26 03:41:00,
2013-08-25 23:56:00,64.6,57.0,30.26,SW,236,5.0,12.0,77,0.00,,,0.00,weatherlink.com 1.10,2013-08-26 03:56:00,